Lid_Strength_Index
-1 -1 -0 3 11 11 13 13 9 10 10 6 5 7 8 7 9 11 1 0 -0 -0 -1 -1 -1 -2 -1 -2 -1 -2 -1 -1 -1 -1 -1 -1 -1 -1 -1 -1 -1 -2 -1 -2 -2 -2 -2 -2 -1
-0 0 2 6 13 14 14 10 11 9 7 5 6 6 7 9 5 4 3 0 -1 -1 -1 -1 -1 -2 -1 -1 -1 -2 -2 -1 -1 -1 -1 -1 -1 -1 -1 -1 -2 -1 -1 -1 -2 -2 -2 -2 -2
-0 1 7 10 12 14 15 10 9 7 6 6 7 5 6 7 4 3 1 -0 -1 -1 -1 -1 -2 -2 -2 -1 -1 -2 -1 -1 -1 -1 -1 -1 -1 -2 -1 -1 -1 -2 -2 -2 -2 -2 -2 -2 -2
2 4 6 12 13 12 11 9 7 8 6 5 6 8 5 3 3 1 0 -0 -0 -1 -1 -1 -1 -2 -1 -1 -2 -1 -1 -1 -2 -1 -2 -2 -1 -1 -1 -2 -2 -2 -2 -2 -1 -2 -2 -2 -1
2 5 11 12 13 10 8 7 7 8 8 7 6 9 7 3 1 0 0 -0 0 -0 -1 -1 -2 -2 -1 -1 -2 -1 -1 -2 -2 -2 -2 -2 -2 -2 -2 -2 -2 -2 -1 -1 -1 -2 -2 -1 -1
7 6 12 15 12 9 8 7 7 7 7 7 7 7 7 2 2 1 0 0 -1 -0 -1 -1 -1 -2 -2 -1 -2 -1 -1 -1 -2 -2 -2 -2 -2 -2 -2 -2 -2 -2 -2 -2 -1 -2 -2 -2 -2
8 9 12 12 12 11 9 6 7 8 8 8 5 9 6 3 1 1 0 -0 -0 -1 -1 -1 -1 -1 -2 -1 -2 -1 -1 -1 -1 -2 -2 -1 -2 -1 -2 -1 -2 -2 -2 -2 -2 -2 -2 -2 -2
6 7 12 11 12 12 7 7 6 7 8 4 4 8 8 4 1 1 0 0 -0 -0 -1 -1 -1 -1 -1 -1 -2 -1 -1 -1 -1 -1 -1 -1 -2 -2 -1 -2 -1 -2 -2 -2 -2 -2 -2 -1 -2
4 10 12 11 11 10 7 8 6 4 6 5 4 5 3 2 1 2 2 1 1 0 -0 -1 -1 -1 -2 -1 -1 -1 -1 -1 -1 -1 -1 -1 -1 -1 -1 -2 -1 -2 -2 -2 -2 -2 -2 -2 -2
8 11 11 8 7 9 7 7 7 7 7 7 6 4 3 2 2 3 3 3 2 1 0 -0 -1 -1 -1 -1 -2 -2 -1 -1 -1 -1 -2 -1 -1 -2 -1 -1 -1 -1 -1 -2 -1 -1 -1 -1 -1
7 11 8 7 6 6 7 7 6 7 9 7 7 5 4 3 3 3 3 2 2 1 0 -0 -1 -1 -1 -1 -1 -1 -1 -1 -1 -2 -2 -1 -2 -2 -2 -1 -2 -2 -1 -2 -1 -1 -2 -1 -1
10 7 7 7 6 6 7 6 7 7 7 4 4 4 4 4 4 3 3 2 2 1 1 -0 -1 -1 -1 -1 -1 -1 -1 -1 -1 -1 -1 -2 -1 -1 -1 -1 -1 -2 -2 -1 -2 -2 -2 -2 -2
9 8 7 6 6 6 6 7 7 7 5 4 4 4 4 4 3 2 2 2 1 2 1 0 -1 -1 -1 -1 -1 -1 -1 -1 -1 -1 -2 -2 -1 -1 -1 -1 -2 -1 -2 -1 -1 -1 -1 -1 -1
7 7 7 6 6 6 7 7 6 6 4 5 5 5 4 4 3 3 2 2 2 1 1 -0 -0 -1 -1 -1 -1 -1 -1 -1 -1 -1 -1 -2 -2 -1 -1 -1 -1 -1 -2 -2 -2 -1 -1 -1 -1
6 9 7 7 6 7 6 9 8 6 5 6 5 5 4 4 3 3 2 2 1 1 0 0 -0 -1 -1 -1 -1 -1 -1 -1 -1 -1 -1 -2 -2 -2 -2 -1 -1 -1 -2 -2 -2 -1 -1 -1 -1
8 8 11 8 7 6 7 11 8 5 6 6 6 5 5 4 3 2 2 1 1 1 1 0 -0 -0 -1 -1 -1 -1 -1 -1 -1 -1 -1 -2 -1 -1 -1 -1 -1 -1 -2 -1 -2 -1 -1 -0 -1
9 12 11 10 6 7 8 10 8 6 6 7 6 5 5 4 3 2 2 1 1 1 1 1 -0 -0 -0 -1 -1 -1 -1 -1 -1 -1 -1 -2 -2 -1 -1 -1 -1 -1 -1 -1 -1 -1 -1 -0 -0
11 11 10 11 8 7 9 9 8 6 6 7 6 6 5 5 4 2 2 1 1 1 0 0 0 -0 -1 -1 -1 -1 -1 -1 -1 -1 -1 -2 -1 -2 -1 -1 -1 -1 -1 -1 -1 -0 -1 -0 0
8 9 11 9 7 8 9 9 9 7 7 7 7 6 5 5 3 2 2 1 1 1 1 0 0 0 0 0 1 0 1 -0 -0 -1 -1 -1 -1 -2 -1 -1 -1 -1 -1 -1 -1 -0 -0 0 -0
9 10 10 9 8 8 9 9 8 8 7 7 7 6 6 5 4 3 2 2 2 1 1 1 1 0 0 0 -0 -0 0 -0 -1 -1 -1 -1 -1 -2 -1 -1 -1 -1 -0 -1 -0 -0 1 0 -0
10 10 10 9 8 8 9 10 9 8 7 6 6 5 5 5 5 4 3 2 2 2 1 1 0 0 -0 -0 -0 -0 -0 -0 0 0 -0 -1 -1 -1 -1 -1 -1 -1 -2 -1 -0 -0 -0 1 0
12 9 8 9 11 13 8 15 10 9 9 8 7 6 5 5 4 3 3 3 2 2 1 1 0 0 -0 -0 0 0 1 2 1 0 -0 -1 -1 -1 -1 -1 -1 -1 -2 -1 -0 -1 -1 -0 1
11 9 10 9 10 11 10 13 10 9 11 9 7 6 5 4 4 4 3 3 2 1 1 1 1 0 -0 -0 -0 1 1 1 0 0 -0 -1 -1 -1 -1 -1 -1 -1 -1 -1 -1 -1 -0 -0 0
9 9 9 9 10 14 11 12 12 10 10 9 7 6 5 5 4 3 3 2 2 1 1 1 1 1 0 0 0 0 1 1 1 1 1 0 -0 -0 -1 -1 -1 -1 -1 -1 -1 -1 -1 -0 -0
9 11 13 14 13 14 10 12 11 8 7 7 7 6 5 5 4 4 4 3 3 2 2 1 1 1 1 0 0 0 0 1 1 1 1 0 1 0 -0 -1 -1 -1 -1 -1 -1 -1 -1 -0 0
9 10 13 16 15 14 9 13 11 6 5 5 5 5 5 5 4 4 3 3 3 2 2 2 1 1 1 1 1 0 0 1 0 0 0 0 0 -0 -1 -1 -1 -1 -1 -1 -1 -0 -0 -1 -0
9 11 9 12 11 12 11 9 7 6 6 5 5 5 5 5 4 4 3 3 3 2 2 2 2 1 1 1 1 0 0 0 0 -0 -0 0 -1 -0 -1 -1 -1 -1 -1 -1 -1 -0 -0 -0 -0
8 7 11 11 15 15 12 11 11 9 7 6 6 6 5 5 4 4 3 3 2 2 2 1 1 1 1 1 1 1 0 0 0 -0 0 -0 -0 -1 -1 -1 -1 -0 -1 -1 -1 -0 -1 -0 -0
9 10 9 9 11 14 14 12 7 7 7 6 6 5 5 5 4 4 3 3 2 2 2 2 1 1 1 1 1 1 1 0 0 0 0 -0 -0 -0 -0 -0 -0 -0 -0 -1 -0 -0 -0 0 -0
9 9 9 13 14 12 12 11 6 6 5 5 5 5 4 4 4 3 3 3 3 2 2 2 1 1 1 1 1 1 0 0 0 0 0 -0 -0 -0 -0 -0 -0 -0 -0 -0 -0 0 -0 0 1